User: anonymous   Login
Location: Lecco
(45.8566°N, 9.3977°E)
Time: 18:49:51
(UTC+02:00)
Language:

Vanguard 2 Rocket - Orbit

View from above orbital plane
View from above orbital plane
View from above satellite
View from above satellite

Ground track
Ground track

The orbit data is extracted from the following two-line orbital elements,

1    12U 59001B   19202.91686497 +.00000239 +00000-0 +13956-3 0  9993
2    12 032.9001 070.9134 1666415 132.9479 242.3487 11.44274862241992
Epoch (UTC): 21 July 2019 22:00:17
Eccentricity: 0.1666415
inclination: 32.9001°
perigee height: 554 km
apogee height: 3326 km
right ascension of ascending node: 70.9134°
argument of perigee: 132.9479°
revolutions per day: 11.44274862
mean anomaly at epoch: 242.3487°
orbit number at epoch: 24199

The dashed part of the orbit path shows where the satellite is in the earth's shadow,  

DLR